Location: Newark
(48.1500°N, 13.1167°E)
Time: 14:36:32
(UTC+00:00)

Tiangong - Pass Details

Date: 01 October 2021
Orbit: 382 x 384 km, 41.5° (Epoch: 20 October)

Event Time Altitude Azimuth Distance (km) Brightness Sun altitude
Exits shadow 03:49:04 18° 212° (SSW) 1,014 2.8 -13.7°
Maximum altitude 03:50:21 23° 176° (S) 853 2.7 -13.5°
Drops below altitude 10° 03:52:57 10° 120° (ESE) 1,396 4.6 -13.1°
Sets 03:55:15 0° 106° (ESE) 2,249 6.2 -12.7°
